www.pogodaiklimat.ru

АРХИВ ПОГОДЫ в Ташкенте

Время (UTC), дата Ветер
(напр.,м/с)
 
Видим.   Явления Облачность Т
(С)
Тd
(С)
f
(%)
Тe
(С)
Тes
(С)
Комфортность P
(гПа)
Po
(гПа)
Тmin
(С)
Tmax
(С)
R
(мм)
S
(см)
15 11.01 В 1 10 км слабый дождь 10/10 300 м
[Sc As op]
+5.6 +0.7 71 +5 +5 по сезону 1026.2 967.0 +13.2
18 11.01 СЗ 1 2000 м слабый дождь 10/10 100 м
[Sc As op]
+3.0 +0.6 84 +1 +1 по сезону 1027.7 967.9 +13.2 0.4
21 11.01 СВ 1 2000 м снег {дождь} 10/10 300 м
[Sc As op]
-0.7 -1.9 92 -3 -3 по сезону 1028.3 967.7
00 12.01 СВ 1 4000 м слабый снег {дождь} 10/10 600 м
[Sc As op]
-0.1 -1.3 92 -2 -2 по сезону 1027.4 966.9
03 12.01 СЗ 1 10 км {снег} 10/10 600 м
[Sc As op]
0.0 -1.5 90 -2 -2 прохладно 1027.0 966.5 2
06 12.01 штиль 0 4000 м слабый снег 10/10 300 м
[Frnb Ns]
+1.8 -0.4 85 +1 +1 по сезону 1027.3 967.4 -1.0 2
09 12.01 Ю 1 4000 м слабый снег {ливн. осадки} 10/10 100 м
[Cb calv As op]
+0.8 -0.6 90 -1 -1 прохладно 1027.0 966.8
12 12.01 З 1 4000 м слабый дождь со снегом 10/0 100 м
[As op]
+1.2 +0.1 92 -1 -1 прохладно 1027.7 967.5
15 12.01 штиль 0 1000 м слабый снег 10/10 100 м
[Sc As op]
+0.3 -0.5 94 -1 -1 по сезону 1028.7 968.3 +1.8
18 12.01 Ю 1 4000 м слабый снег 10/0 100 м
[As op]
+0.4 -0.5 94 -2 -2 по сезону 1028.3 967.9 +1.8 3
21 12.01 ЮВ 1 4000 м слабый снег 10/10 200 м
[Frnb Ns]
+0.6 -0.2 94 -1 -1 по сезону 1028.5 968.1
00 13.01 штиль 0 4000 м слабый снег 10/10 200 м
[Frnb Ns]
+0.1 -0.5 96 -1 -1 по сезону 1027.4 967.4
03 13.01 З 1 4000 м слабый снег 10/10 200 м
[Frnb Ns]
-0.1 -0.7 96 -2 -2 прохладно 1026.5 966.1 4
06 13.01 СВ 1 4000 м в посл. час снег 9/0
[As op]
+1.0 -0.4 90 -1 0 прохладно 1026.5 966.3 -0.3 1
09 13.01 С 2 10 км 8/8 1000 м
[Cu hum]
+2.8 -1.7 72 0 +1 прохладно 1023.5 963.9
12 13.01 СЗ 1 10 км ясно +2.8 -1.7 72 +1 +1 по сезону 1023.2 963.6
15 13.01 СЗ 1 10 км ясно -1.0 -2.8 88 -3 -3 прохладно 1024.0 963.5 +3.8
18 13.01 В 1 10 км ясно -2.6 -3.2 96 -5 -5 прохладно 1023.8 962.9 +3.8 0.0
21 13.01 В 1 10 км ясно -2.2 -3.8 89 -4 -4 прохладно 1022.6 962.0
00 14.01 В 1 10 км ясно -3.0 -4.3 91 -5 -5 прохладно 1022.5 961.7
03 14.01 В 1 4000 м дымка ясно -3.0 -4.7 88 -5 -5 холодно 1022.5 961.7
06 14.01 штиль 0 4000 м дымка ясно +2.0 -3.7 66 +1 +7 по сезону 1022.4 962.6 -3.3
09 14.01 СЗ 1 4000 м дымка ясно +4.6 -2.1 62 +4 +8 по сезону 1020.8 961.7
12 14.01 З 1 4000 м дымка ясно +1.5 -2.6 74 0 0 прохладно 1022.1 962.3
15 14.01 штиль 0 50 м туман ?/? -1.9 -2.2 98 -3 -3 прохладно 1024.2 963.5 +5.2
18 14.01 штиль 0 50 м туман ?/? -2.4 -2.7 98 -4 -4 прохладно 1024.0 963.2 +5.2
21 14.01 штиль 0 50 м туман ?/? -2.9 -3.3 97 -4 -4 прохладно 1023.6 962.8
00 15.01 СВ 1 50 м туман ?/? -3.1 -3.5 97 -6 -6 прохладно 1023.9 963.0
03 15.01 ЮВ 1 200 м туман ?/? -3.7 -3.9 99 -6 -6 холодно 1024.0 963.0
06 15.01 ЮВ 1 200 м туман ?/? -2.5 -2.8 98 -5 -5 холодно 1024.5 963.7 -3.9
09 15.01 штиль 0 4000 м дымка {туман} ясно +1.2 +0.1 92 0 +5 по сезону 1022.9 963.0
12 15.01 ЮВ 1 2000 м дымка 6/0
[Ci fib]
-0.4 -3.2 81 -2 -2 прохладно 1024.0 963.6
15 15.01 СВ 1 500 м туман ?/? -1.9 -2.8 94 -4 -4 прохладно 1025.3 964.5 +2.9
18 15.01 штиль 0 500 м туман ?/? -2.2 -3.1 94 -3 -3 по сезону 1024.7 964.0 +2.9
21 15.01 ЮВ 1 500 м туман ?/? -3.1 -3.8 95 -6 -6 холодно 1025.4 964.4
00 16.01 ЮВ 2 500 м туман ?/? -3.3 -4.0 95 -8 -8 холодно 1026.5 965.4
03 16.01 ЮВ 1 500 м туман ?/? -3.7 -4.4 95 -6 -6 холодно 1027.0 965.8
06 16.01 ЮВ 1 500 м слабый снег {туман} 10/10 200 м
[St]
-2.9 -3.6 95 -5 -5 холодно 1027.1 966.0 -3.8
09 16.01 Ю 1 500 м туман {снег} ?/? -2.4 -3.0 96 -5 -5 холодно 1025.8 964.9
12 16.01 ЮВ 1 500 м туман {снег} ?/? -2.5 -3.1 96 -5 -5 очень
холодно
1026.2 965.3
15 16.01 Ю 1 1000 м дымка {туман} 10/10 100 м
[Sc As op]
-2.6 -3.6 93 -5 -5 холодно 1027.5 966.5 -1.8
18 16.01 Ю 1 1000 м слабый снег {туман} 10/10 100 м
[Sc As op]
-3.0 -3.7 95 -5 -5 прохладно 1027.8 966.7 -1.8 0.0
21 16.01 ЮВ 1 1000 м дымка {снег} 10/10 100 м
[Sc As op]
-2.8 -3.5 95 -5 -5 прохладно 1027.7 966.6
00 17.01 ЮВ 1 1000 м дымка {снег} 10/10 100 м
[Sc As op]
-2.6 -3.6 93 -5 -5 прохладно 1028.3 967.3
03 17.01 ЮВ 1 1000 м дымка 10/10 100 м
[Sc As op]
-3.1 -4.1 93 -5 -5 холодно 1028.7 967.5
06 17.01 ЮВ 1 4000 м дымка {туман} 9/0
[Ac trans Ci]
+0.3 -1.0 91 -2 +2 прохладно 1029.2 968.7 -3.3 0.0
09 17.01 З 1 10 км 9/0
[Ac lent Ci]
+5.2 -4.5 50 +5 +8 по сезону 1027.0 967.6
12 17.01 С 1 4000 м дымка 9/0
[Ac trans Ci]
+3.1 -2.7 66 +2 +2 по сезону 1027.3 967.5
15 17.01 С 1 4000 м дымка 6/0
[Ci fib]
+0.9 -5.1 64 -1 -1 по сезону 1026.7 966.5 +6.9
18 17.01 Ю 1 10 км ясно +0.7 -5.4 64 -1 -1 по сезону 1027.3 967.0 +6.9
21 17.01 штиль 0 10 км 9/0
[Ci]
-0.2 -5.0 70 -1 -1 по сезону 1027.8 967.2
00 18.01 Ю 1 10 км ясно -1.2 -3.7 83 -3 -3 по сезону 1028.9 968.2
03 18.01 С 1 500 м туман 9/3 600 м
[Sc]
-1.6 -2.8 92 -4 -4 прохладно 1030.2 969.3
06 18.01 ЮВ 2 10 км 4/0
[Ci fib]
+4.0 -1.9 65 +2 +5 по сезону 1030.1 970.4 -2.0
09 18.01 ЮЗ 1 4000 м дымка 9/0
[Ac lent]
+6.0 -1.9 57 +5 +7 по сезону 1029.4 970.1
12 18.01 Ю 1 4000 м дымка 9/0
[Ac lent Ci fib]
+5.0 -4.0 52 +4 +4 по сезону 1030.3 970.7

 

Местоположение метеостанции Ташкент (Ташкентская область, Узбекистан): широта 41.27 долгота 69.27 высота над уровнем моря 466 м.

В архиве по умолчанию представлена погода в Ташкенте за последнюю неделю. Архивные данные за месяц целиком и за предыдущие месяцы, начиная с января 2011 года, Вы можете получить, выбрав интересующий диапазон дат из раскрывающегося списка и нажав кнопку "Ввод!".

Внимание! Время в таблицах - всемирное. Для получения местного времени необходимо прибавить поправку, которая в Ташкенте равна 5 ч.

Ветер - указаны скорость ветра в м/с - средняя за 10 мин, порывы в срок и между сроками (в фигурных скобках) и направление, откуда дует ветер: С - северный, СВ - северо-восточный, В - восточный, ЮВ - юго-восточный, Ю - южный, ЮЗ - юго-западный, З - западный, СЗ - северо-западный.
Видимость - горизонтальная дальность видимости в метрах или километрах. При видимости от 1 до 10 км при отсутствии осадков обычно наблюдается дымка, при ухудшении видимости до 1 км и менее - туман. В сухую погоду видимость может ухудшаться дымом, пылью или мглою.
Явления - указаны атмосферные явления, наблюдавшиеся в срок или в последний час перед сроком; фигурными скобками обозначены явления, наблюдавшиеся между сроками (за 1-3 часа до срока); квадратными скобками обозначены град или гололедные отложения с указанием их диаметра в мм.
Облачность - указаны через наклонную черту общая и нижняя облачность в баллах и высота нижней границы облаков в метрах; квадратными скобками обозначены формы облаков: Ci - перистые, Cs - перисто-слоистые, Cc - перисто-кучевые, Ac - высококучевые, As - высокослоистые, Sc - слоисто-кучевые, Ns - слоисто-дождевые, Cu - кучевые, Cb - кучево-дождевые. Подробнее классификацию облаков см. в Атласе облаков (PDF).
T - Температура воздуха - температура, измеренная на высоте 2 м над землей.
Td - Температура точки росы - температура, при понижении до которой содержащийся в воздухе водяной пар достигнет насыщения.
f - Относительная влажность воздуха - влажноcть воздуха, измеренная на высоте 2 м над землей.
Te - Эффективная температура - температура, которую ощущает одетый по сезону человек в тени. Характеристика душности погоды. При расчете учитывается влияние влажности воздуха и скорости ветра на теплоощущения человека.
Tes - Эффективная температура на солнце - температура, которую ощущает человек, с поправкой на солнечный нагрев. Характеристика знойности погоды. Зависит от высоты солнца над горизонтом, облачности и скорости ветра. Ночью, в пасмурную погоду, а также при ветре 12 м/с и более поправка равна нулю.
P - Атмосферное давление - приведенное к уровню моря атмосферное давление.
Po - Атмосферное давление - измеренное на уровне метеостанции атмосферное давление.
Tmin - Минимальная температура - минимум температуры воздуха на высоте 2 м над землей.
Tmax - Максимальная температура - максимум температуры воздуха на высоте 2 м над землей.
R - Количество осадков - Количество выпавших осадков, мм. При наведении курсора мыши на число - период времени, за который выпало указанное количество осадков.
S - Снежный покров - Высота снежного покрова, см. При наведении курсора мыши на число - состояние снежного покрова и степень покрытия местности в баллах.